Tracking 19476 objects as of 18-Jan-2019
HD Live streaming from Space Station
objects crossing your sky now

HETE 2

Track HETE 2 now!
10-day predictions
HETE 2 is classified as:


NORAD ID: 26561
Int'l Code: 2000-061A
Perigee: 537.6 km
Apogee: 562.4 km
Inclination: 2.0 °
Period: 95.5 minutes
Semi major axis: 6920 km
RCS: 0.631 m2 (medium)
Launch date: October 9, 2000
Source: United States (US)
Launch site: Kwajalein (KWAJ)

Designed to detect and localize gamma-ray bursts.
aabbcc
Your satellite tracking list
Your tracking list is empty




NASA's NSSDC Master Catalog

Two Line Element Set (TLE):
1 26561U 00061A   19017.67123799  .00001197  00000-0  19031-4 0  9995
2 26561   1.9504  11.6099 0017927  43.1579 316.9867 15.07831141  2454
Source of the keplerian elements: AFSPC